FENGYUN 1C DEB

Satellite information

Favourite Embed

Satellite Type and Status

DEBRISIN ORBIT

Key statistics

Satellite FENGYUN 1C DEB at a glance.

Uptime

9555

Days in orbit

Revolutions

≈ 14.1

Per day

Orbit

SSO

Sun Synchronous Orbit

Inclination

98.7

Latest

Satellite identification and parameters

Extended collection of information and parameters for FENGYUN 1C DEB.

Object identification

Identified? True

Debris? True

Object name: FENGYUN 1C DEB

International designator: 1999-025CUD

Object number (NORAD): 32183

Object ID (CCSDS): 32183

Country: PEOPLES REPUBLIC OF CHINA (PRC)

Current information (Y/N): Y

RCS size: SMALL

Orbital parameters

Period: 102.153 minutes

Inclination: 98.7282 deg

SMA: 7238.683 km

Apoapsis: 892.905 km

Periapsis: 828.191 km

RAAN: 242.7397 deg

Eccentricy: 0.00447

Argument of periapsis: 151.0003 deg

Mean anomaly: 209.3665 deg

Mean motion: 14.09656803 rev/day

Mean motion (dot): 0.00000587 rev/day2

B* drag term: 0.00035577 1/REarth

Two-line elements (TLE)

Creation date: July 6, 2025, 4:10 a.m.

Reference frame: TEME

Reference center: EARTH

Epoch: July 5, 2025, 2:53 p.m. UTC

TLE line 0: 0 FENGYUN 1C DEB

TLE line 1: 1 32183U 99025CUD 25186.62019603 .00000587 00000-0 35577-3 0 9991

TLE line 2: 2 32183 98.7282 242.7397 0044700 151.0003 209.3665 14.09656803705087

Live tracking on map

Real-time ground track for satellite FENGYUN 1C DEB.

In-orbit conjunctions

A list of the most updated potential collisions computed for object FENGYUN 1C DEB.

Target Orbit TCA Probability of collision Miss distance Type
PSLV R/B SSO 2024-12-16 01:15:15 0.0001468252 346.0 (m) ROCKET BODY
COSMOS 397 DEB * LEO 2024-11-13 09:18:22 0.0002643878 419.0 (m) DEBRIS

Associated space launch

Chinese polar orbiting meteorological satellite

FENGYUN 1C DEB was lifted into orbit during the mission ‘Long March 4B | Feng Yun 1C’, on board a Long March 4B space rocket.

The launch took place on May 10, 1999, 1:33 a.m. from Launch Complex 7.

For more information about the launch, click the button.

Launch to space Long March 4B | Feng Yun 1C
Long March 4B | Feng Yun 1C

Agency: N/A

Status: Launch Successful

Launch date: May 10, 1999, 1:33 a.m. UTC

Rocket: Long March 4B

Launch pad: Launch Complex 7

Location: Taiyuan Satellite Launch Center, People's Republic of China

...

Latest news about this satellite

There are no fresh news available about this satellite. Check back as we update our databases every day.


Newsletter sign-up

Weekly statistics, charts and insights to help you stay on top of the space industry.